Theta_e
362 361 362 361 360 360 358 357 362 362 364 360 360 361 358 358 360 358 355 355 353 354 353 353 356 355 352 350 351 355 357 361 364 365 366 368 370 369 368 367 367 367 367 366 365 365 365 365 364 361 361 360 359 358 358 357 358 359 361 360 360 359 359 358 359 360 361 360 360 360 360 359 359 358 359 357 357 357 357 357 357 357 357 357 357
361 361 360 360 360 361 360 359 359 362 362 360 361 359 357 358 358 358 353 355 355 355 355 353 352 352 351 351 350 352 359 358 363 365 367 366 367 368 367 367 366 366 366 367 366 366 365 364 361 361 361 360 359 358 357 357 357 359 360 361 360 360 359 359 360 360 360 359 359 361 359 360 359 358 358 358 358 357 356 357 358 357 357 358 357
360 360 360 359 360 360 358 360 359 361 363 360 362 362 360 358 358 357 359 358 355 354 354 354 354 351 351 350 350 355 354 359 362 362 362 365 366 370 368 368 367 366 366 366 366 366 364 361 360 360 360 360 359 358 357 356 357 357 360 361 361 361 360 360 360 361 360 360 359 360 359 359 359 358 357 357 357 357 358 358 358 358 357 357 356
361 361 360 359 357 356 358 359 359 360 364 361 360 363 364 361 361 362 362 359 357 355 356 352 353 351 351 348 352 352 354 356 359 358 362 366 369 369 371 369 368 367 367 367 366 364 363 361 360 361 360 359 359 358 357 356 357 357 359 361 361 360 361 360 360 361 360 360 360 360 359 359 359 358 357 357 357 357 357 357 357 357 358 357 357
360 362 362 359 357 358 359 360 361 362 363 362 361 366 363 361 362 363 360 358 354 355 352 353 353 353 350 350 351 351 353 356 359 361 362 363 367 366 369 369 371 368 368 368 367 366 365 363 360 360 360 359 359 358 358 357 356 357 357 360 361 361 361 361 360 360 360 360 360 360 359 358 359 358 357 357 357 356 356 356 356 356 356 356 357
362 361 360 359 359 360 359 358 362 362 364 364 361 364 360 360 358 357 356 353 350 353 351 351 350 351 352 351 352 354 355 354 357 359 360 362 362 369 368 369 370 371 372 368 367 366 364 363 362 362 360 358 358 358 357 357 357 356 356 357 360 361 361 360 361 360 360 360 359 359 359 359 358 358 357 355 356 356 356 356 356 356 355 355 356
363 360 359 359 357 357 358 358 361 363 360 362 362 362 361 359 357 355 352 349 349 353 350 351 349 350 352 353 351 350 354 354 356 359 361 365 364 365 368 367 368 372 369 374 367 367 364 364 361 361 359 361 358 358 358 357 357 355 355 355 357 360 361 360 360 359 359 358 359 359 359 358 358 358 357 357 357 357 356 356 356 356 355 355 355
363 362 359 359 356 357 359 360 362 362 361 361 366 362 361 357 360 356 350 344 350 350 353 351 350 348 350 351 353 351 352 354 355 356 360 363 366 364 368 368 371 371 365 369 371 373 366 363 362 359 360 360 358 357 358 357 356 356 355 354 355 358 360 360 360 359 358 358 358 358 358 358 357 357 357 357 357 356 356 356 356 356 356 355 355
365 364 361 359 356 358 357 358 362 360 359 360 360 361 359 352 359 361 360 352 346 346 351 353 350 349 348 348 350 354 352 357 355 357 358 361 362 365 367 369 369 364 371 370 373 373 368 366 361 360 360 360 360 358 356 357 356 356 356 354 354 355 358 360 359 359 358 358 358 359 357 357 356 357 357 356 356 356 355 355 354 353 353 354 355
365 363 362 359 360 359 358 360 361 360 360 360 359 359 361 357 356 360 359 355 347 348 348 349 347 346 348 347 351 350 352 354 356 356 359 359 362 362 364 363 365 368 369 370 369 370 372 367 365 365 363 360 360 358 357 355 357 356 355 355 354 354 357 358 358 358 359 358 358 357 358 357 357 357 356 356 355 354 353 353 353 352 352 352 354
364 364 363 360 360 359 360 361 362 360 361 360 359 359 359 358 356 357 361 358 353 352 352 349 346 347 347 347 348 351 354 353 356 355 359 358 360 362 361 367 365 365 369 371 368 370 368 373 372 373 366 362 362 360 357 357 355 355 356 355 354 354 356 357 358 358 358 358 359 358 357 357 355 355 354 354 354 353 353 353 352 352 352 352 351
365 364 363 362 360 359 360 361 362 361 359 358 356 356 357 359 359 353 358 356 355 353 351 351 349 349 347 348 348 350 350 352 354 354 359 357 359 361 361 364 366 368 365 368 369 366 370 369 370 369 370 364 364 359 358 358 356 356 354 355 353 352 353 355 357 357 358 358 358 357 356 356 355 354 353 352 351 353 352 352 351 351 351 351 351
364 363 362 361 361 360 361 362 362 362 361 359 359 360 362 363 360 365 354 352 346 347 348 348 347 346 350 346 350 351 351 351 351 352 354 357 357 359 360 360 362 366 369 366 367 367 366 370 370 372 371 370 365 363 360 357 357 357 356 356 353 355 353 354 355 355 356 357 357 357 357 356 354 353 353 353 353 353 353 352 352 352 352 351 352
364 364 364 361 361 360 360 362 361 361 362 362 362 364 366 363 357 355 354 347 346 346 343 345 340 339 340 342 347 351 350 350 350 350 351 354 354 359 361 361 363 364 365 369 369 370 369 369 372 370 373 370 373 370 365 361 359 359 358 358 355 354 354 354 354 355 355 355 356 356 356 356 354 354 354 353 354 353 353 353 353 353 352 352 352
363 364 362 362 360 360 360 362 362 361 361 362 363 361 361 358 361 353 346 344 346 348 349 348 340 344 346 341 336 339 349 347 348 348 348 350 353 355 358 363 363 364 363 366 369 372 370 368 369 370 372 372 370 371 369 367 366 360 359 358 357 355 354 354 354 354 355 354 355 355 355 354 354 354 354 354 353 353 353 353 353 352 352 352 352
362 361 362 362 362 362 360 361 361 364 361 360 360 359 361 359 355 354 354 347 342 342 347 351 346 340 335 336 340 338 334 342 344 347 347 347 348 351 353 356 360 363 364 363 365 368 370 370 370 372 373 372 372 371 370 370 366 363 361 359 358 356 356 354 354 354 354 354 354 354 354 354 353 353 353 353 354 353 353 352 352 352 352 352 352
363 363 363 363 365 364 362 361 360 362 361 359 359 356 358 356 357 356 355 345 341 342 347 347 345 346 341 337 335 334 338 338 339 342 346 344 348 348 351 348 354 357 358 360 362 366 366 368 372 373 375 375 374 372 372 370 369 367 364 360 359 358 356 356 355 355 355 354 355 355 354 353 352 352 353 353 353 352 352 352 351 351 352 352 351
363 362 363 363 365 365 364 361 361 360 360 359 360 360 360 356 357 355 352 352 351 347 343 348 345 348 348 343 342 335 337 339 338 334 349 345 343 346 348 352 353 353 358 357 361 364 366 366 374 375 375 375 374 373 372 371 372 371 368 363 359 360 359 357 356 356 355 354 354 355 354 353 352 351 352 352 352 352 352 352 351 351 351 351 351
364 364 363 364 364 365 365 363 362 362 364 363 360 357 355 354 356 355 352 352 352 347 347 342 345 345 343 342 343 343 341 337 337 339 336 343 345 343 345 350 351 350 352 353 360 367 365 364 365 371 373 373 373 371 372 371 368 370 368 366 362 361 361 359 357 356 356 355 354 354 354 353 353 352 351 351 351 352 352 351 351 351 351 351 350
364 365 364 364 364 365 366 364 362 363 361 361 359 358 356 359 362 361 359 357 357 350 345 342 340 342 345 342 342 342 343 343 343 339 336 334 335 342 345 345 346 347 350 350 355 360 361 359 358 362 366 369 372 372 371 370 371 372 370 367 364 362 361 361 360 358 357 356 355 355 355 354 353 353 352 351 350 350 351 351 352 351 351 350 350
365 364 364 364 364 363 364 363 361 361 364 361 360 358 358 359 362 359 357 357 354 352 350 348 346 341 344 346 343 341 341 343 343 342 338 335 333 335 337 342 345 346 349 349 349 351 356 362 354 355 359 365 372 373 370 371 369 375 371 368 365 363 361 361 361 360 358 358 357 356 355 354 353 353 352 352 352 350 350 350 350 351 351 350 350
364 364 365 364 364 365 361 360 361 358 359 361 360 361 360 361 360 358 358 356 355 352 352 350 347 346 343 343 344 344 343 340 340 340 340 341 334 335 335 336 336 340 346 346 348 350 351 354 362 359 354 358 365 372 372 372 374 372 370 368 366 363 362 361 361 361 360 359 358 357 356 355 354 353 352 352 352 351 351 349 349 350 350 350 350
359 365 362 362 363 363 360 359 359 361 360 360 361 358 357 358 356 357 358 358 353 355 352 353 351 350 348 345 342 341 340 338 341 340 339 338 336 335 337 337 337 337 342 345 347 348 349 350 353 349 352 358 362 366 372 374 373 370 370 369 365 365 363 361 361 361 361 360 359 358 357 356 355 354 353 353 352 351 352 351 350 349 349 349 349
360 358 361 360 362 361 363 359 359 359 359 361 361 359 358 357 355 356 358 359 358 356 353 351 350 349 349 346 343 343 342 341 341 341 341 341 340 339 336 338 337 338 340 346 346 346 350 350 354 353 351 351 359 366 369 373 374 372 371 369 366 364 364 362 362 362 362 361 360 359 358 357 356 355 354 353 352 352 352 351 351 350 349 349 348
357 356 357 358 361 361 361 358 358 360 362 360 363 363 364 361 358 357 358 359 356 357 352 352 350 347 346 346 345 344 343 343 343 342 341 341 341 339 340 342 337 337 341 341 341 347 347 349 350 351 350 352 355 362 365 369 369 373 371 366 365 364 363 363 363 363 363 362 361 361 360 359 358 357 356 354 353 353 352 352 351 351 350 349 348
355 357 357 358 358 360 361 361 363 363 365 366 363 363 363 360 360 358 357 360 359 358 356 355 353 351 350 347 347 345 344 345 345 343 341 341 339 339 341 341 340 338 341 341 343 341 349 351 352 354 353 353 352 357 367 366 363 371 370 368 368 362 361 362 363 364 364 363 363 362 361 361 361 359 357 356 355 354 353 352 352 351 351 350 349
355 360 361 360 360 361 360 361 361 365 366 364 357 360 363 362 360 359 359 358 358 356 355 354 350 350 350 349 348 347 346 345 345 345 345 343 342 342 341 338 337 339 338 340 341 340 346 356 354 352 352 357 359 361 365 362 360 371 371 372 367 361 359 359 361 363 365 365 364 363 363 362 362 361 360 355 353 354 354 353 352 352 351 351 350
361 361 359 360 359 359 361 360 362 363 366 365 362 359 360 358 357 357 357 354 356 355 355 354 352 352 351 352 351 349 350 348 347 346 346 346 345 346 346 345 339 337 340 338 338 342 350 352 354 356 353 357 360 362 361 362 357 371 371 369 369 369 358 357 358 361 363 364 365 364 363 363 363 362 359 354 355 355 355 355 353 353 353 352 351
356 360 359 362 361 360 360 358 362 364 366 365 362 363 362 359 356 357 356 355 358 357 357 357 358 356 354 352 351 350 350 353 351 347 349 351 349 349 349 345 346 341 338 336 340 339 348 353 350 358 362 362 363 359 356 359 361 367 365 370 369 371 360 354 355 356 357 359 361 361 362 363 363 363 359 357 356 357 357 356 355 355 354 354 352
356 356 358 358 361 362 360 359 359 361 363 363 365 361 362 363 359 362 360 362 361 360 360 360 360 359 357 354 352 351 350 349 351 352 352 353 352 353 357 351 352 346 344 339 342 346 344 353 355 355 359 360 359 357 356 359 364 363 361 362 363 366 358 353 353 352 353 353 355 358 361 363 363 363 358 358 358 357 357 356 355 355 355 354 352
355 359 360 357 359 360 363 360 362 362 364 364 365 365 362 360 359 358 358 360 360 361 362 360 359 358 360 357 356 355 357 356 354 352 353 353 354 359 360 354 350 348 347 345 339 345 351 348 352 351 353 358 356 355 355 358 361 364 362 365 366 360 359 363 353 352 350 350 350 353 357 361 363 360 357 358 358 358 357 357 357 356 356 355 355
354 356 356 357 356 357 356 358 358 363 363 364 363 363 362 361 360 356 357 360 358 359 359 360 360 360 361 358 358 358 358 358 355 354 354 356 357 356 357 357 354 352 352 348 342 343 353 349 349 354 356 353 353 353 356 357 358 363 369 367 368 363 369 367 356 352 350 348 347 347 349 353 359 357 355 357 358 359 357 357 358 357 357 356 355
356 354 355 356 357 356 355 356 359 364 366 364 361 363 362 361 361 361 360 360 359 357 357 356 356 358 359 359 359 359 360 356 355 353 352 354 357 358 358 356 353 355 355 349 345 345 351 352 353 352 353 355 350 353 354 358 363 365 363 372 372 368 367 368 371 353 350 348 346 345 344 345 350 356 355 356 357 357 358 358 356 356 356 355 355
358 356 356 355 356 356 355 357 360 363 367 368 364 362 361 361 360 359 359 360 360 359 358 357 359 360 359 358 357 354 356 356 355 353 352 353 356 356 357 357 355 355 357 350 347 347 348 353 352 353 351 354 352 352 356 357 360 363 363 368 374 373 369 369 365 368 349 349 346 344 343 342 344 351 353 354 356 356 356 356 356 354 352 351 351
361 360 358 358 360 362 362 363 365 365 366 366 365 363 362 362 360 357 357 357 357 356 355 356 358 359 357 357 357 359 358 355 356 356 357 356 355 354 355 356 354 356 356 357 353 348 348 348 351 348 350 355 354 354 358 358 360 363 363 363 361 362 364 367 365 365 348 347 346 344 342 341 341 344 347 348 350 352 353 354 352 347 345 345 343
362 367 364 361 364 367 365 365 365 365 365 365 364 365 363 361 359 358 359 358 356 354 355 355 355 356 357 357 356 357 357 356 356 356 358 356 353 355 355 356 358 356 356 356 355 352 351 346 353 348 350 351 351 354 358 357 358 358 359 361 363 362 363 361 361 363 352 345 344 343 342 341 339 340 342 342 344 345 345 343 341 340 339 338 338
367 366 364 364 364 366 364 364 364 365 364 365 365 364 362 361 360 357 358 358 357 357 357 358 356 356 356 355 355 357 357 354 354 354 355 355 355 355 355 357 355 354 354 355 355 354 350 348 349 352 354 356 356 357 358 356 361 356 360 361 360 363 363 360 364 360 351 344 345 343 343 342 339 337 338 339 338 338 337 336 336 335 335 335 335
367 366 365 365 362 362 365 364 364 365 367 366 365 363 362 362 360 358 357 357 356 356 357 356 357 358 356 356 355 355 355 353 352 353 355 354 355 355 354 355 357 357 358 358 356 354 353 349 348 347 353 355 352 351 355 359 355 355 358 356 357 356 357 353 357 357 358 359 359 359 346 343 339 336 337 337 336 336 336 335 334 333 332 331 331
368 367 365 365 365 365 366 366 365 365 365 364 364 365 363 363 361 358 358 357 357 357 358 357 355 355 355 354 355 353 353 352 352 352 353 354 351 355 354 354 356 354 350 350 352 353 352 351 349 349 352 354 355 350 354 352 353 352 348 344 345 352 356 352 350 354 355 356 352 346 350 352 348 349 338 334 334 334 334 335 335 335 335 332 329
366 365 364 365 365 366 365 363 362 363 362 362 362 363 362 361 359 358 358 357 356 356 355 355 355 355 355 355 355 354 354 354 353 353 353 354 353 355 355 355 354 353 352 351 349 349 348 349 349 348 344 350 353 354 355 352 350 349 349 342 340 344 347 351 353 351 353 354 352 355 351 350 350 348 340 337 336 335 335 335 335 336 338 335 331
364 365 365 365 363 362 361 361 361 361 359 359 360 359 359 360 359 357 357 356 355 354 354 356 356 357 357 356 356 356 357 355 355 354 354 353 354 354 356 356 354 352 351 350 350 349 350 349 346 345 344 348 349 344 348 347 344 346 348 347 345 346 348 349 352 355 355 352 351 351 350 351 354 353 355 355 354 342 343 338 343 340 338 336 332
365 364 365 363 362 361 360 359 360 359 358 359 357 354 354 360 360 360 358 359 358 358 358 358 358 359 358 358 358 356 355 354 354 353 353 353 353 353 356 356 355 353 352 350 349 349 349 347 346 342 338 339 340 341 346 348 350 352 349 348 345 349 351 348 348 350 352 352 349 348 349 351 350 354 354 351 352 356 354 353 353 349 342 334 332
363 363 361 361 360 360 358 357 357 357 357 358 355 347 348 351 358 360 358 359 360 358 358 357 357 359 359 360 361 359 356 354 354 353 353 352 353 352 352 352 351 351 351 349 347 345 346 343 341 343 343 337 341 345 347 349 349 348 348 347 344 343 343 339 337 346 355 355 351 346 346 349 351 347 348 347 349 350 349 345 339 339 337 333 330
362 361 358 358 358 358 357 358 358 358 359 352 341 344 344 345 349 357 357 356 357 356 356 356 357 358 358 359 360 360 359 358 358 358 356 355 353 353 353 352 351 351 351 350 347 346 347 342 344 343 344 339 345 342 342 345 345 346 347 347 346 344 343 342 341 341 349 354 347 345 342 347 349 347 346 346 346 346 344 340 336 337 333 333 331
359 358 358 357 357 357 357 356 355 356 356 342 339 341 340 340 342 352 357 356 356 356 356 357 358 358 358 357 357 358 358 355 356 358 359 358 354 352 352 350 351 351 348 347 348 350 348 346 345 345 344 345 341 346 348 347 348 344 345 344 345 345 344 343 341 341 344 350 345 340 336 341 345 343 340 342 345 347 345 338 334 335 334 331 330
358 357 356 356 357 357 356 356 357 355 356 345 337 338 338 337 339 347 358 357 357 357 358 358 358 358 358 357 357 356 358 358 358 357 356 356 355 355 355 355 354 353 351 349 349 349 349 350 348 346 348 348 345 348 348 348 344 342 341 340 342 340 340 339 341 342 346 346 342 340 338 338 342 341 341 344 345 347 348 338 329 332 331 330 329
356 356 355 355 356 356 356 355 354 354 354 336 336 337 335 334 337 348 359 358 357 356 354 353 353 353 353 353 353 352 353 353 354 352 353 352 352 352 353 351 351 351 351 351 349 348 347 347 346 346 347 347 347 347 347 345 343 342 341 340 342 342 342 344 342 345 344 346 345 342 334 338 343 341 341 343 343 345 345 336 327 329 329 329 327
357 357 357 358 357 357 356 355 354 354 348 329 332 332 331 333 340 355 355 353 351 351 351 351 351 353 353 353 352 352 352 352 346 340 344 351 352 351 350 352 352 352 353 351 340 341 346 344 344 344 344 342 333 342 342 342 344 346 346 345 345 345 342 337 335 337 339 345 345 340 337 336 342 338 339 341 342 341 343 345 329 329 328 327 328
355 355 355 357 358 356 356 355 355 354 349 331 324 326 329 331 342 352 350 348 348 348 349 349 349 350 351 351 349 350 349 350 338 327 331 343 351 349 349 348 346 346 345 347 335 335 334 329 326 327 326 327 329 328 327 327 341 340 343 340 338 339 337 334 334 335 336 338 342 341 337 333 337 337 335 337 339 336 339 341 345 327 327 326 325
354 355 356 356 357 357 357 357 358 354 348 335 324 323 325 329 346 350 350 347 347 347 348 348 349 348 348 343 345 347 347 347 328 325 327 342 347 347 346 343 341 341 340 341 341 342 330 330 330 330 331 332 333 333 335 333 332 340 341 335 337 336 335 335 332 334 336 339 340 339 334 331 335 336 333 334 335 340 340 343 343 339 324 323 322
356 356 354 355 357 359 358 358 354 353 349 338 320 321 323 327 343 352 349 349 347 347 346 345 347 346 346 346 346 345 341 335 322 323 324 335 343 344 342 340 338 339 340 340 338 338 340 343 346 345 345 342 347 348 347 340 338 342 343 340 339 337 334 334 333 333 331 334 339 342 332 332 332 332 331 328 328 333 340 338 338 340 339 339 339
Wind_Speed
3 3 2 3 3 4 4 4 4 4 3 4 3 3 4 3 3 3 2 2 2 1 3 3 3 1 3 1 2 3 3 2 3 4 3 3 6 7 6 5 6 6 5 5 5 4 4 4 4 4 4 5 5 5 5 6 6 7 6 5 6 5 4 3 4 5 4 3 3 4 4 4 4 4 4 4 4 3 2 1 1 1 1 1 1
3 3 3 3 3 4 4 5 3 4 4 4 3 4 4 3 3 3 3 2 2 2 3 3 4 2 2 3 2 2 3 2 2 3 2 4 4 6 6 5 6 5 5 4 4 3 4 3 3 3 4 5 5 4 4 5 6 7 6 6 5 6 5 5 5 5 4 4 4 4 5 5 5 5 5 4 3 3 2 2 2 1 1 1 1
4 3 3 3 3 4 4 4 4 4 4 4 3 3 4 4 4 3 2 2 3 2 3 3 2 2 3 1 2 1 3 3 2 2 4 3 6 4 6 7 5 4 4 4 4 3 4 3 3 3 4 4 4 4 4 5 5 5 7 6 6 6 6 5 5 5 5 5 5 5 6 6 6 5 5 4 3 3 3 3 3 2 2 1 1
4 4 3 3 4 3 5 4 4 4 3 4 4 3 4 4 4 4 3 4 3 2 2 3 1 2 0 2 1 1 3 2 1 6 5 4 1 4 5 5 8 5 4 4 4 3 3 3 2 3 3 3 4 4 4 4 5 5 7 7 6 6 6 6 6 6 6 6 6 6 6 6 6 5 5 4 4 3 3 3 3 3 3 2 2
4 4 4 4 4 3 4 4 3 3 3 4 5 4 5 4 4 3 3 4 4 3 3 3 2 1 3 1 2 2 2 2 2 2 5 1 0 1 3 5 5 7 7 6 5 4 3 3 2 2 2 3 3 4 4 4 4 4 6 6 6 6 6 6 6 6 6 6 6 6 6 6 5 5 5 4 4 3 3 3 3 4 3 2 2
4 4 4 4 4 4 5 4 3 3 4 4 4 4 4 3 4 4 2 4 3 3 3 2 2 2 1 2 1 2 1 1 1 3 3 3 4 2 1 2 3 5 5 8 7 5 4 3 2 1 2 2 2 3 3 4 4 4 4 5 6 6 6 6 6 6 6 6 6 6 6 6 6 5 5 5 5 4 4 4 4 3 4 4 3
4 4 5 4 5 5 4 4 3 3 4 3 4 4 4 4 3 4 5 4 4 1 3 2 2 3 1 2 2 2 1 1 2 1 2 4 1 3 3 1 1 0 3 5 7 8 5 5 3 2 2 1 1 2 3 3 3 4 4 3 5 6 6 6 6 6 6 6 6 6 6 6 5 5 5 5 5 4 3 3 3 3 3 3 3
4 4 5 5 5 4 4 3 3 4 4 4 4 4 4 4 3 4 4 5 2 4 3 2 2 4 2 2 2 1 2 1 1 1 4 2 2 0 2 2 1 1 2 0 3 7 8 5 4 4 2 2 1 1 2 2 2 2 3 3 3 5 5 5 5 5 5 5 5 5 5 5 5 4 5 5 5 5 4 4 4 3 3 3 3
5 5 5 5 5 4 4 4 4 5 4 4 4 4 5 4 2 4 3 3 5 5 3 2 3 3 3 3 1 1 3 2 2 1 3 0 1 4 2 2 1 1 4 2 1 4 8 8 5 3 5 2 2 1 1 1 2 2 2 2 2 3 4 4 4 4 4 4 5 5 5 4 4 4 4 5 5 4 3 3 2 2 2 2 2
6 6 6 6 5 4 4 3 4 5 4 4 4 5 3 5 3 3 4 4 5 4 3 2 3 3 4 2 0 3 1 2 1 2 1 2 2 2 1 2 3 3 2 1 0 0 3 8 8 8 7 6 3 3 1 1 0 1 1 1 1 2 3 3 3 3 3 4 4 4 5 4 5 4 5 4 4 3 2 1 1 1 2 1 1
6 6 6 6 6 5 5 5 5 5 4 5 5 5 4 3 5 3 3 4 4 4 4 3 4 1 3 0 2 1 2 1 2 2 3 3 3 3 3 3 3 3 4 2 2 2 3 1 4 5 7 11 6 4 4 3 2 1 1 1 1 1 3 2 3 2 2 3 4 4 4 4 4 4 3 3 2 2 1 1 1 0 0 0 0
6 6 6 6 5 5 5 5 5 5 5 5 4 5 5 4 5 5 4 5 5 5 5 4 4 3 2 2 1 1 2 1 3 3 3 4 4 4 4 5 4 4 4 4 1 3 3 3 3 3 1 10 10 7 6 5 4 3 2 2 2 2 1 2 2 2 2 3 4 3 3 3 3 2 2 2 2 2 2 1 1 1 1 1 1
6 6 6 6 6 5 5 6 5 5 5 5 5 4 2 4 3 3 6 5 6 6 5 4 4 3 2 3 2 2 3 3 4 4 4 3 3 4 4 4 3 4 4 4 4 5 4 5 4 4 3 4 7 11 10 8 7 6 6 5 4 3 3 3 3 2 2 3 3 3 3 3 3 2 2 2 2 1 2 2 2 2 1 1 2
6 6 6 6 6 6 6 6 5 5 5 4 4 4 4 5 5 4 6 6 5 6 2 3 6 5 3 3 3 4 1 4 5 4 4 4 4 3 4 3 4 5 5 5 5 5 5 5 5 5 4 4 4 6 7 8 9 11 9 8 7 5 4 3 3 3 4 4 3 3 4 4 4 3 3 3 3 3 3 3 4 3 2 2 2
7 7 6 7 7 6 6 5 6 5 5 5 6 5 5 6 5 6 5 7 6 5 3 5 5 2 2 3 4 4 5 5 3 4 3 2 3 4 4 5 7 7 5 5 5 6 5 6 6 6 5 5 5 4 6 7 5 16 11 10 9 8 7 5 5 5 5 5 4 5 5 5 5 4 4 4 4 4 3 3 3 3 2 2 1
7 8 7 6 7 6 6 5 5 5 5 4 4 6 5 5 6 6 5 6 7 7 6 4 6 3 5 5 3 3 5 3 4 3 3 4 4 3 4 6 6 4 5 6 6 6 6 6 7 7 7 6 6 5 5 5 10 14 13 11 11 10 9 8 7 7 7 6 6 6 6 6 6 5 5 5 5 4 4 3 2 2 2 1 3
7 7 7 6 6 6 6 5 5 5 6 5 5 6 6 6 4 4 6 7 6 6 4 6 7 4 6 3 5 5 4 4 4 3 3 4 4 4 2 4 3 4 4 5 4 4 6 7 7 7 7 7 7 7 6 5 7 8 10 13 13 12 11 11 10 9 9 8 7 7 6 6 6 6 6 6 5 5 4 4 3 2 3 3 3
7 7 7 6 7 6 6 6 6 6 5 5 5 4 4 6 6 6 7 7 6 5 6 5 6 3 4 6 5 6 6 6 5 5 2 5 5 4 3 3 4 4 4 4 3 5 5 5 7 7 7 7 7 7 7 6 6 6 7 10 16 14 13 13 12 11 10 9 8 8 8 8 7 7 6 6 6 6 5 5 5 4 4 4 4
7 7 6 6 6 6 6 6 6 6 5 5 5 6 6 6 4 4 5 5 5 6 6 6 6 7 7 8 6 6 8 6 6 6 6 3 4 6 4 3 4 4 3 4 3 4 5 5 6 7 8 7 7 7 7 7 9 9 9 9 17 16 15 15 14 13 12 11 10 10 10 9 9 8 8 7 7 7 7 7 7 7 6 6 6
5 6 6 7 6 6 6 6 6 6 5 6 6 6 4 2 0 4 4 3 4 6 7 8 7 5 7 8 6 6 7 8 8 7 7 7 7 5 5 6 5 6 5 5 5 6 6 5 5 5 5 7 7 7 7 7 7 9 9 10 15 16 16 15 15 14 13 12 12 12 11 11 10 10 9 9 9 9 9 9 8 8 9 8 8
5 5 6 6 6 6 6 6 6 6 6 6 6 6 5 5 3 4 5 5 6 6 5 6 8 7 6 6 7 8 7 7 7 7 7 8 8 8 8 6 7 6 5 4 6 4 4 5 5 6 5 5 6 7 7 6 7 8 9 14 14 16 15 16 16 16 15 14 13 13 13 12 12 12 11 11 11 10 10 10 10 10 10 10 9
6 6 5 6 6 6 6 7 7 7 7 7 7 6 6 5 5 6 6 6 5 6 6 7 7 8 9 7 5 6 8 8 8 8 9 9 9 9 9 10 8 7 6 6 7 4 5 4 5 7 7 5 5 6 7 7 6 7 9 14 15 15 16 16 17 16 16 15 15 14 14 14 13 13 13 12 12 12 11 11 11 11 11 11 11
4 5 6 6 6 6 7 7 7 6 6 6 6 7 6 7 7 7 6 6 6 7 7 7 7 7 8 8 9 8 8 9 9 9 9 9 9 10 9 9 10 10 7 8 7 6 8 8 6 8 7 5 5 5 6 7 8 9 5 14 16 14 16 17 17 18 17 17 16 15 15 15 15 14 14 13 13 13 13 13 13 13 12 12 12
5 4 4 6 6 6 6 6 6 6 6 6 6 6 6 6 5 5 5 6 7 7 7 8 10 9 9 9 10 10 10 11 9 8 9 9 8 10 10 10 11 10 8 8 9 7 5 8 6 8 8 7 5 5 5 6 7 9 9 12 15 16 17 16 18 18 18 18 17 17 16 16 16 16 15 15 14 14 15 15 15 14 13 13 13
5 5 6 6 5 5 5 5 5 6 6 5 5 5 5 5 5 6 6 6 6 7 8 9 10 10 9 9 9 10 11 10 10 10 10 10 9 10 10 10 12 11 10 9 8 7 8 8 7 8 7 7 6 4 6 7 7 9 13 10 15 15 16 16 17 19 19 19 19 18 18 18 18 17 17 16 16 16 16 16 15 15 14 14 14
7 6 5 5 5 5 5 6 5 5 5 6 6 6 5 6 6 6 7 7 6 8 9 10 10 11 10 10 11 11 10 10 11 11 11 10 11 11 10 9 11 11 9 10 8 9 5 7 8 7 6 7 7 5 5 6 8 10 14 9 13 16 16 17 18 19 20 20 20 20 20 19 19 19 18 18 17 15 15 15 15 15 16 16 16
6 5 4 4 5 4 5 5 5 6 6 6 6 6 6 6 7 8 7 6 6 7 8 10 10 11 12 11 10 11 11 11 11 11 10 11 11 11 11 11 11 11 11 9 9 10 9 5 5 8 9 6 6 6 6 7 7 8 11 9 7 16 17 18 18 18 19 20 21 21 21 20 20 19 17 8 8 14 18 17 17 17 17 17 16
4 4 6 6 6 6 6 6 5 6 6 7 7 6 6 7 7 7 8 7 7 9 10 11 11 12 12 11 11 11 10 10 11 12 11 11 10 11 10 10 11 12 10 10 9 8 5 6 7 7 9 8 7 6 9 7 10 12 11 7 7 8 18 18 18 18 19 20 21 20 21 21 21 20 11 15 20 20 18 19 19 19 18 18 17
7 6 7 6 6 6 5 5 5 6 5 6 7 6 5 5 6 6 8 8 6 6 7 9 9 8 8 9 10 12 11 10 11 11 11 10 11 12 10 10 10 12 12 13 10 10 6 3 2 3 8 9 6 8 11 8 3 7 6 7 7 7 10 17 17 17 18 18 18 18 19 19 19 17 14 20 20 20 21 21 20 20 19 19 19
7 7 6 6 6 6 6 5 5 5 6 3 3 4 2 0 3 3 2 3 4 5 5 6 6 6 7 9 10 8 8 9 11 9 10 10 7 5 4 3 3 7 9 12 11 10 11 4 4 4 6 7 9 9 10 10 5 5 8 9 8 7 9 16 16 17 17 17 18 18 18 18 18 15 14 20 21 23 24 23 21 22 21 21 20
7 6 6 7 7 6 5 6 6 6 5 5 5 3 3 3 3 4 4 4 5 6 7 8 8 7 7 8 7 8 7 8 8 8 7 8 6 4 2 1 3 5 5 6 9 10 11 10 8 10 8 8 8 9 11 10 4 5 8 8 8 5 4 10 14 15 16 16 17 17 18 17 16 13 17 20 22 24 25 22 22 22 22 21 20
7 7 8 8 8 7 7 7 7 5 6 5 5 5 4 4 4 5 6 7 8 7 8 8 6 7 7 8 8 8 8 8 9 9 9 8 6 4 3 2 4 6 4 4 8 12 10 12 13 10 11 11 9 10 12 11 9 5 7 7 7 3 6 7 13 15 16 16 16 16 15 15 13 13 20 22 22 23 24 23 21 21 21 22 23
7 8 9 9 8 8 8 8 5 6 6 5 4 5 5 5 5 6 7 6 7 8 8 9 9 9 8 9 8 8 7 8 8 8 8 7 5 4 4 5 6 7 6 6 9 11 10 11 10 11 11 11 12 12 12 10 8 7 9 7 7 8 7 6 5 14 16 16 16 15 14 14 11 17 23 22 24 26 23 21 23 21 20 21 22
7 9 9 8 8 8 9 8 8 6 6 6 6 6 6 6 7 6 7 8 8 8 8 9 8 7 8 9 9 10 9 10 8 9 8 8 7 7 7 7 7 7 7 7 9 10 13 9 9 8 7 11 11 13 12 10 10 9 10 8 5 5 6 6 8 5 14 16 16 15 14 14 12 17 21 23 24 26 25 24 24 22 21 20 20
8 8 8 7 6 6 5 4 4 5 6 5 5 5 6 6 7 7 7 7 7 8 9 9 9 8 9 9 9 8 6 8 8 8 8 9 9 9 8 8 9 8 7 7 8 10 12 12 11 11 11 10 11 11 10 10 8 8 9 9 9 6 4 6 9 6 10 14 14 13 14 13 12 17 20 20 20 22 22 22 22 21 20 20 20
5 3 3 4 4 4 5 6 6 6 5 5 5 5 6 6 7 7 7 7 8 8 8 8 8 7 8 8 9 8 8 9 9 9 8 9 10 10 9 8 7 8 8 8 9 9 11 13 11 10 11 7 8 10 9 11 9 7 7 8 7 8 8 9 9 9 8 13 12 12 12 13 13 17 20 20 20 20 21 20 19 19 18 18 18
4 5 5 5 5 6 6 7 7 7 6 6 6 6 6 6 7 7 6 7 7 8 8 7 7 7 8 9 9 8 8 9 8 8 7 9 9 10 10 8 9 9 8 8 9 9 9 10 11 10 9 6 4 8 11 12 7 8 10 6 8 8 8 10 8 8 4 13 10 12 12 14 13 17 19 20 19 19 18 17 16 17 17 17 16
5 5 6 5 5 6 6 6 7 7 6 6 5 5 6 6 6 7 8 8 8 8 8 8 8 7 8 8 8 8 8 9 8 7 8 11 10 10 11 10 9 8 8 8 8 8 6 8 11 11 10 7 2 5 11 9 9 8 6 4 6 9 7 7 7 6 10 5 5 5 9 11 13 15 17 18 18 18 18 17 16 16 16 16 16
5 5 5 5 5 5 5 6 6 6 6 6 5 6 6 6 7 7 7 7 7 7 7 7 7 7 8 9 9 10 10 8 7 7 8 10 9 10 10 9 8 8 8 8 7 9 10 10 10 10 9 9 6 6 3 5 8 9 9 8 9 6 5 6 6 6 5 5 3 12 12 12 6 8 16 18 18 19 19 18 17 17 17 16 16
4 5 5 5 5 5 5 6 5 5 5 5 6 6 6 6 6 6 6 6 6 6 6 7 7 8 8 8 7 7 8 8 8 9 9 7 9 8 6 7 7 7 8 8 8 8 9 10 9 8 11 9 6 6 4 5 5 5 2 1 7 8 8 7 7 6 5 6 6 6 7 10 10 10 10 15 16 16 17 16 18 17 17 16 16
4 5 6 5 6 5 4 5 5 5 5 5 4 4 4 4 4 5 5 5 5 5 6 7 7 7 6 7 8 8 9 10 12 11 10 9 7 7 7 7 7 7 7 8 8 8 7 7 8 8 11 9 3 7 6 5 4 5 2 2 5 6 8 8 8 5 6 5 6 6 6 6 8 8 4 5 8 14 14 17 13 15 16 16 16
5 5 5 5 4 4 5 4 4 4 4 3 3 2 3 3 3 3 3 3 5 5 5 4 5 5 6 7 7 10 10 10 10 11 12 14 14 11 8 7 7 7 7 7 8 8 8 8 7 5 8 8 3 7 6 6 5 5 4 2 4 5 5 7 7 5 6 6 6 6 6 7 7 7 7 8 8 7 8 8 10 11 13 17 16
5 4 4 4 4 4 4 4 4 4 3 2 8 6 4 6 5 4 3 3 3 2 3 3 4 5 5 5 5 6 7 9 9 12 12 11 11 13 13 12 10 10 8 7 7 7 7 6 8 8 4 8 9 7 7 4 3 4 5 4 4 6 6 7 7 5 3 3 3 5 7 7 6 7 7 7 7 9 9 4 6 12 10 7 12
4 4 4 3 3 2 3 4 4 3 2 8 9 8 5 3 4 3 2 2 1 2 3 4 4 4 5 5 5 4 5 5 5 6 8 9 8 8 8 9 9 11 11 9 7 8 6 7 8 8 6 8 3 4 5 4 4 5 5 5 5 5 6 7 7 7 4 5 7 8 9 7 7 7 8 8 8 8 7 2 1 6 9 9 9
5 4 4 4 4 4 4 4 3 2 4 9 8 5 4 2 2 6 2 1 2 3 3 3 4 4 4 4 5 4 3 4 5 5 5 5 6 7 9 11 12 10 5 6 8 8 8 6 8 7 6 5 7 5 4 5 4 6 6 7 6 6 6 8 9 9 8 6 7 8 9 7 6 7 7 6 5 5 4 8 5 4 5 8 8
5 5 5 5 5 4 3 3 3 3 5 7 6 4 2 1 4 6 2 2 2 1 2 2 3 3 4 4 4 4 4 4 4 5 5 5 5 5 4 5 5 5 7 7 8 9 8 6 6 6 5 4 5 5 6 5 7 7 7 8 8 8 8 8 9 9 8 6 6 6 7 7 5 7 7 6 6 6 5 5 9 9 7 4 5
6 6 6 5 5 5 4 4 4 3 5 6 4 3 2 3 4 8 1 1 0 0 2 3 4 3 4 5 5 5 5 5 7 9 8 8 7 5 3 4 4 2 1 1 2 2 4 5 6 6 6 6 6 6 6 5 6 6 5 6 7 7 7 7 7 6 6 1 3 5 7 7 6 7 7 7 8 8 8 4 8 8 6 3 1
6 6 5 5 5 5 4 4 4 5 6 8 6 4 1 3 6 3 2 2 2 2 2 3 3 4 4 6 6 6 7 6 10 12 11 10 9 8 5 4 4 3 3 2 5 3 2 5 6 7 7 7 6 5 5 5 4 4 5 4 5 6 6 6 6 5 6 1 2 3 6 8 7 8 8 8 8 8 7 7 9 8 7 5 3
7 6 6 5 5 5 5 4 5 7 7 6 6 5 5 7 7 1 1 2 2 3 3 3 3 4 5 6 6 6 6 6 11 12 13 14 9 8 7 6 5 4 4 6 5 4 5 4 5 6 6 5 5 3 2 3 3 5 4 5 5 6 6 7 6 6 5 2 4 4 5 8 7 7 9 7 7 8 8 6 3 7 7 6 5
6 6 6 5 5 5 5 4 5 8 6 6 7 6 6 7 9 2 2 3 3 2 3 2 3 3 3 1 5 5 6 6 11 9 12 11 8 8 7 7 7 6 5 6 2 3 9 8 7 8 6 5 5 4 4 5 4 6 4 5 6 6 6 6 7 7 7 4 3 4 6 7 7 7 8 8 8 6 5 2 5 0 8 8 8
6 6 6 6 5 4 5 6 10 9 7 5 6 6 6 7 8 2 2 3 2 3 3 3 3 3 4 0 4 5 5 7 8 9 10 10 7 8 8 7 6 6 8 8 7 8 7 4 6 6 5 6 6 4 6 6 4 6 5 5 5 5 6 6 7 7 7 1 3 3 6 7 7 7 6 7 6 5 1 5 5 5 6 6 4
Wind_Direction
239 245 251 258 263 275 282 282 283 286 296 283 287 308 301 308 314 296 281 307 295 316 349 329 309 15 341 325 58 75 61 58 51 48 47 89 96 111 124 109 97 84 88 78 83 67 69 74 76 81 80 75 69 68 63 59 67 74 79 83 93 95 85 71 67 75 75 107 123 128 126 137 143 150 157 153 146 151 140 126 26 9 336 306 269
254 262 261 252 264 273 263 265 270 285 275 278 299 294 295 313 293 287 313 307 305 11 313 341 316 355 24 1 16 40 106 114 90 50 70 80 79 117 130 116 104 98 87 98 94 89 89 81 83 83 80 75 71 74 60 55 56 75 74 79 83 85 83 72 61 72 88 99 108 123 130 132 142 142 140 133 125 110 87 60 43 37 19 295 290
265 260 252 254 250 253 263 265 271 268 277 276 285 293 305 303 309 319 298 294 309 342 306 299 323 293 60 330 68 122 58 67 215 130 84 59 110 136 133 136 123 116 111 106 95 96 91 80 87 84 79 76 79 74 73 58 59 63 68 75 82 83 84 84 79 78 88 95 103 115 123 127 129 129 119 117 105 91 72 60 52 51 36 38 282
266 263 262 249 252 241 254 243 248 256 255 286 285 303 296 295 301 290 295 280 271 265 276 269 298 360 264 56 93 59 105 83 277 72 45 57 49 133 145 133 143 142 137 125 131 121 122 92 95 85 79 80 80 83 76 69 63 64 70 68 75 83 90 90 92 95 93 96 100 104 114 119 116 116 117 114 104 91 85 77 63 62 56 39 59
244 251 247 248 260 264 257 265 260 263 267 275 294 285 271 259 250 252 255 261 250 250 252 253 238 49 313 136 65 87 84 116 53 116 86 99 134 95 107 140 144 158 161 163 147 151 138 139 98 107 86 86 79 82 78 75 61 51 78 72 70 84 88 93 96 99 100 105 113 110 108 107 110 114 122 125 128 119 92 75 71 66 79 65 70
249 243 253 246 245 243 259 257 258 261 279 277 264 260 266 274 275 258 242 254 253 248 267 281 330 278 233 55 262 44 65 120 110 92 118 59 30 323 143 131 149 158 160 167 167 158 159 154 153 122 110 93 89 84 87 75 59 58 57 79 72 82 86 90 101 106 107 105 109 115 113 115 119 122 124 114 100 89 79 72 57 52 54 68 73
230 247 237 245 249 230 231 245 242 266 266 250 265 270 265 259 255 256 233 223 245 268 275 309 320 289 301 310 313 123 39 79 61 100 120 95 319 4 353 4 99 140 152 162 168 162 160 163 179 172 163 131 102 88 88 82 62 55 54 65 82 77 85 89 93 104 111 117 118 124 125 119 113 116 119 119 111 110 115 110 91 64 47 53 58
224 226 251 240 247 250 216 232 251 249 250 257 268 264 260 265 265 262 251 240 254 243 227 229 269 295 291 270 217 215 211 104 202 237 91 133 126 44 295 328 267 71 327 318 137 146 162 171 182 199 210 195 141 120 92 96 78 54 59 64 89 82 87 100 100 101 113 119 128 120 116 113 121 128 126 117 123 125 117 110 113 105 89 71 52
211 219 235 239 252 250 235 219 234 246 245 258 258 258 261 241 223 266 290 260 246 254 254 252 253 264 291 224 222 108 259 125 212 176 118 113 169 213 208 218 354 252 229 182 219 134 174 163 179 200 211 234 214 191 150 82 104 81 45 68 57 97 97 105 118 130 132 134 126 128 127 130 130 136 137 135 133 133 129 127 132 119 108 99 72
208 215 228 249 247 248 253 238 232 243 245 250 254 259 247 263 255 231 237 247 246 256 260 276 293 336 315 304 103 204 163 205 44 305 188 191 165 279 295 325 288 268 279 348 86 33 171 165 176 198 205 200 207 215 225 213 166 126 112 46 38 102 106 125 131 141 150 149 149 143 139 141 141 144 148 150 157 161 142 120 91 134 118 86 77
210 214 226 233 238 232 239 225 237 233 242 243 241 244 262 265 265 221 234 255 276 279 295 300 284 241 239 161 190 154 284 100 231 208 261 220 165 156 208 222 249 276 283 241 255 185 265 201 196 214 189 192 188 222 219 215 221 211 204 159 218 352 129 132 144 153 172 173 171 162 158 157 163 153 167 172 167 161 145 129 160 31 64 304 208
213 220 228 236 238 227 231 227 225 236 238 245 241 227 216 231 234 254 238 228 227 242 241 250 255 265 340 256 205 227 206 248 229 228 212 230 191 187 212 181 220 221 245 255 197 262 231 225 242 253 197 173 179 194 218 221 221 220 209 217 217 222 246 155 166 164 190 201 187 182 180 182 159 175 172 183 185 176 204 192 210 269 280 272 274
215 220 222 226 235 237 226 226 228 231 232 237 245 276 302 274 257 258 244 228 236 223 228 258 285 254 203 250 199 203 192 224 254 241 210 227 206 178 204 214 191 218 224 245 225 229 228 231 224 223 231 157 187 184 198 211 220 223 216 223 214 233 227 195 177 206 184 185 186 190 206 202 209 204 201 193 209 203 214 231 241 249 270 260 256
213 214 218 220 224 227 222 223 227 226 237 245 260 253 247 244 240 224 231 234 231 247 219 228 225 243 266 263 215 193 209 250 230 213 225 190 236 197 193 201 201 215 214 221 224 229 227 232 229 228 207 222 227 177 195 197 209 211 215 213 215 213 218 216 197 198 221 217 216 213 218 227 222 236 224 227 233 242 252 257 271 266 241 251 270
212 211 214 218 225 226 225 216 221 225 227 232 225 230 233 230 223 241 228 205 236 228 223 248 269 261 265 295 276 271 159 229 224 243 265 245 196 202 186 161 213 220 202 208 219 221 226 228 223 224 217 218 222 208 216 209 176 183 200 209 211 211 210 213 210 204 221 227 200 225 228 227 237 232 243 240 244 247 253 278 260 251 248 245 253
211 213 216 217 221 224 227 228 212 222 234 240 243 235 219 230 227 213 242 250 203 224 210 210 264 270 250 254 297 270 286 187 235 199 229 216 247 234 203 195 185 208 200 211 206 212 221 230 222 220 216 218 219 217 226 241 145 171 192 205 211 209 209 212 212 211 213 224 215 218 223 234 231 235 237 240 239 242 253 247 239 227 231 192 151
215 215 219 213 218 221 231 230 222 215 226 227 231 232 221 221 219 233 217 237 238 228 201 226 227 248 292 279 258 259 253 283 297 281 244 253 194 250 138 311 233 202 224 228 217 195 216 222 219 219 212 214 215 215 219 224 164 195 192 201 207 209 208 208 213 214 215 222 217 216 223 229 235 232 236 239 233 229 222 228 215 208 204 175 162
213 218 217 217 211 218 221 230 220 213 226 242 242 243 233 246 205 219 216 227 263 250 232 209 265 195 236 266 280 284 312 311 314 276 231 262 289 248 243 225 262 232 228 231 205 223 235 218 214 224 220 217 214 211 217 219 216 197 204 191 201 206 206 208 210 213 216 216 219 216 220 226 231 229 232 236 231 227 220 215 221 212 203 191 181
209 213 214 213 217 214 215 224 231 227 217 227 232 239 234 223 229 211 239 236 218 255 253 249 214 234 238 244 263 270 280 284 284 307 287 287 267 288 252 208 248 251 235 247 188 228 238 238 216 211 219 220 217 217 215 217 208 212 201 181 184 199 206 208 209 213 214 215 218 218 219 224 223 229 229 232 232 226 222 226 227 217 210 207 208
219 208 214 207 213 211 209 221 230 233 227 227 236 240 248 258 209 274 274 264 243 244 250 249 251 226 252 270 255 252 257 275 274 279 292 284 281 262 257 245 247 265 249 248 201 204 229 250 251 228 221 216 215 223 220 216 218 207 202 173 180 193 202 208 210 212 214 215 218 217 219 219 221 225 226 227 229 227 227 231 229 228 225 217 215
212 218 206 217 208 219 213 220 221 229 229 235 238 241 243 245 239 232 228 240 241 242 250 262 267 268 248 224 257 274 274 263 268 272 274 283 286 283 280 270 251 255 265 272 278 266 231 220 275 288 272 235 222 222 226 221 220 211 212 176 184 190 199 206 210 212 214 216 215 218 219 220 222 222 226 224 225 225 226 233 234 232 232 231 228
195 207 210 214 215 213 220 218 223 227 231 237 239 241 245 245 241 244 243 243 249 249 245 251 256 265 271 276 253 263 279 283 275 271 265 268 273 276 285 296 288 278 270 266 272 262 276 256 237 255 262 253 233 225 236 228 224 217 212 178 184 190 197 204 210 213 215 216 217 217 219 221 221 224 225 224 222 225 227 230 230 234 234 234 234
224 179 202 207 210 214 228 222 226 224 228 237 236 240 237 236 238 236 245 253 249 255 259 262 268 269 269 268 269 258 253 253 258 268 281 282 286 284 280 275 290 297 289 289 291 286 304 303 282 285 284 275 260 248 231 234 227 227 218 172 186 189 197 203 208 213 215 217 217 218 218 219 221 223 224 223 224 226 227 229 231 230 233 237 238
218 229 211 209 202 214 220 234 228 233 229 234 244 244 249 252 255 252 243 240 253 264 267 265 261 258 257 264 269 268 266 270 270 262 260 262 266 276 283 291 285 282 292 298 292 282 256 276 272 270 282 282 270 257 259 241 229 213 211 187 192 195 199 202 206 212 215 216 218 218 218 218 220 221 221 221 223 226 225 227 228 231 233 234 236
237 228 213 219 214 207 229 226 222 224 241 250 246 252 267 274 272 271 268 267 261 256 255 254 258 264 271 268 264 266 269 274 279 280 278 284 278 279 278 286 286 287 289 294 291 292 291 287 290 293 281 275 267 240 251 241 245 189 206 204 195 200 206 204 208 211 214 217 218 219 218 219 219 219 219 220 222 224 226 227 228 230 233 232 235
220 217 236 229 222 206 206 224 229 229 223 228 240 248 253 256 257 257 260 258 263 259 258 263 265 267 268 271 272 277 279 277 280 279 277 277 277 275 278 274 279 283 285 282 289 288 283 284 289 271 270 274 280 269 238 262 262 174 188 231 191 201 205 211 212 213 214 216 220 219 220 220 220 219 218 218 221 227 232 233 232 232 232 234 237
216 218 220 240 245 237 213 223 212 215 220 227 235 233 231 240 249 257 266 261 264 280 267 264 262 260 263 266 269 268 273 277 274 273 273 272 274 279 281 282 278 279 282 282 283 279 288 271 259 300 294 285 275 274 269 265 289 135 181 216 243 192 207 207 214 215 215 218 220 220 220 222 221 221 218 226 242 247 242 236 234 232 232 235 235
220 218 214 220 230 234 219 221 221 211 214 224 235 242 226 232 240 242 244 245 234 232 251 257 261 268 272 277 273 271 270 270 272 275 275 273 274 277 277 280 287 281 276 277 280 278 313 336 314 299 300 298 308 293 262 247 269 149 187 240 245 215 198 207 210 214 217 221 221 221 222 222 223 222 201 210 222 223 233 237 233 232 233 235 236
232 218 224 215 228 230 239 244 209 209 224 228 235 239 251 250 246 254 254 259 285 290 288 278 277 280 272 269 270 274 278 283 271 263 270 277 283 285 297 311 316 314 303 292 281 279 265 255 292 298 314 298 270 286 284 271 238 155 241 236 235 258 203 204 208 213 217 220 224 224 224 225 224 219 198 219 219 223 228 234 237 237 236 234 234
220 236 231 222 218 218 241 235 243 230 223 210 106 108 123 252 297 290 283 336 296 278 275 277 274 264 278 282 279 273 264 256 275 306 299 297 318 327 28 327 12 293 280 273 282 296 287 258 222 237 238 271 291 278 281 281 157 193 265 268 261 256 209 194 203 211 215 220 223 225 225 224 223 216 205 222 225 227 228 228 231 236 237 237 238
227 227 240 240 231 223 214 233 214 220 187 178 166 147 155 189 219 251 252 248 249 250 254 252 257 259 259 260 260 268 274 280 283 273 279 281 296 335 353 37 251 227 239 293 295 273 284 282 268 269 254 236 251 273 282 287 265 208 269 273 264 262 157 193 200 210 215 218 224 226 226 225 223 199 218 224 230 233 230 226 229 233 235 236 237
226 222 233 240 247 245 230 217 227 181 186 182 176 174 191 219 228 240 237 230 239 248 258 263 262 261 258 252 253 258 266 271 270 267 265 273 284 290 292 306 275 266 260 241 237 264 261 273 277 264 265 268 257 254 254 253 258 197 268 265 278 267 229 246 194 205 209 219 222 228 228 231 222 185 222 223 227 233 231 231 230 231 233 236 238
223 224 225 234 238 239 246 259 235 189 194 198 193 185 202 220 237 246 257 245 249 255 258 264 267 264 257 258 261 266 274 274 276 276 275 272 272 262 262 262 267 272 263 256 260 267 272 271 276 279 288 285 274 264 267 267 257 244 247 256 254 257 262 268 256 196 208 211 218 220 225 226 208 191 216 221 228 234 234 233 238 235 233 236 238
229 230 234 236 231 235 244 236 236 213 199 187 192 194 208 213 223 232 237 236 245 254 259 263 259 259 265 263 263 263 258 260 263 269 273 270 258 254 243 243 250 245 233 243 253 264 272 274 269 263 269 277 277 275 268 263 266 262 260 253 248 266 297 279 257 255 201 210 209 214 220 220 196 199 216 221 225 232 234 236 237 235 235 235 236
216 230 237 239 247 260 259 245 225 227 222 210 204 205 213 222 233 238 240 240 241 247 251 254 256 258 261 263 267 268 264 262 260 263 265 263 261 253 245 241 247 248 250 239 255 264 267 265 272 277 260 253 269 271 275 282 286 299 285 272 270 257 226 251 265 259 213 200 199 211 217 215 191 201 214 222 223 233 238 234 234 235 234 234 235
233 228 244 253 255 234 231 239 234 228 223 217 212 208 214 220 229 235 236 238 246 253 258 263 265 264 265 269 272 271 267 263 263 261 257 263 264 260 250 244 246 250 249 244 236 252 263 278 274 271 276 271 260 280 297 278 275 257 266 286 286 280 275 264 271 275 177 183 187 207 209 211 192 200 213 221 226 232 239 241 240 239 239 240 239
224 233 242 246 239 234 240 239 240 239 232 220 214 214 218 222 228 239 241 242 246 246 247 250 252 258 263 264 264 261 257 260 255 253 256 254 249 254 257 251 245 245 244 244 245 245 259 268 276 272 278 281 326 316 300 284 296 289 278 299 301 295 282 286 287 287 144 183 187 206 208 209 196 197 213 222 228 236 240 244 246 246 245 243 242
232 234 238 246 247 245 244 243 243 244 241 233 226 227 227 227 226 236 242 244 247 250 253 254 254 255 261 263 262 255 250 250 255 254 257 258 257 256 258 258 259 260 258 257 255 251 251 262 267 274 273 277 310 297 280 309 302 302 311 304 304 311 330 324 319 310 307 311 283 231 215 222 210 198 208 221 229 235 242 245 247 248 248 248 247
234 237 243 244 242 249 245 251 253 251 246 243 234 223 221 222 226 230 235 238 245 248 250 252 251 254 253 253 254 256 257 256 258 262 262 262 263 261 268 274 272 269 266 266 264 264 257 259 264 270 277 271 260 251 260 280 287 283 309 329 308 299 325 331 328 326 314 307 287 272 284 303 296 208 201 215 219 227 234 237 240 243 248 249 248
228 244 237 238 247 246 246 246 252 257 252 248 243 234 224 225 229 232 235 240 242 246 255 256 254 252 254 257 260 263 259 255 255 262 264 268 271 268 265 269 276 273 268 265 264 265 267 269 275 283 279 277 293 298 256 275 298 304 92 261 300 306 307 305 299 288 291 307 305 292 274 243 245 262 222 207 215 222 230 239 240 240 238 242 243
228 225 234 240 244 242 244 261 255 246 248 245 238 235 229 223 234 240 242 247 251 250 249 250 251 253 255 256 257 253 252 258 263 271 283 291 286 275 261 258 262 267 264 267 271 275 279 277 279 283 286 288 317 288 298 301 293 301 355 319 292 283 281 287 284 283 284 279 270 278 283 287 279 262 225 212 221 212 224 226 237 229 233 236 235
221 229 229 233 238 245 244 234 242 242 239 246 231 252 318 305 242 253 248 244 242 242 251 264 265 255 250 252 252 257 265 274 284 281 271 262 261 266 280 279 273 266 270 277 278 280 284 289 288 288 288 290 303 281 290 285 292 299 302 289 292 297 293 291 290 270 263 267 291 298 293 291 289 292 292 283 283 229 257 222 227 238 220 220 226
209 214 219 219 221 232 240 234 224 227 224 87 81 65 33 336 293 248 243 244 250 262 264 260 274 274 271 263 264 265 258 256 254 250 257 264 266 265 263 266 264 271 279 277 279 275 282 295 292 284 289 298 300 317 298 296 292 298 303 294 282 291 289 293 292 287 271 282 267 274 274 274 280 279 280 277 268 262 254 269 112 209 237 211 216
196 182 188 218 221 229 219 217 221 201 141 83 74 76 69 33 332 290 241 267 287 288 272 280 283 287 289 284 279 272 265 279 296 284 259 247 256 273 283 280 273 263 262 268 276 283 283 280 289 300 316 299 303 284 273 296 316 310 293 292 290 292 291 288 285 288 291 291 304 294 292 283 268 271 274 268 264 270 279 33 126 164 203 221 222
162 177 178 171 164 177 186 190 171 149 110 89 88 84 70 35 326 284 221 219 253 238 258 271 282 291 294 292 295 291 289 272 267 275 290 287 265 262 264 273 272 269 247 239 262 275 293 290 289 292 295 308 306 306 331 320 309 298 305 298 300 295 288 290 293 305 318 332 300 289 292 304 290 272 275 284 289 286 264 172 190 261 239 225 237
167 157 152 155 142 150 145 138 126 133 102 92 105 108 101 352 288 279 247 200 248 296 300 295 300 299 293 294 295 296 304 294 301 309 304 293 290 281 281 275 268 249 243 246 257 258 262 273 285 294 297 302 281 298 305 318 312 310 310 304 307 307 306 305 314 306 297 292 294 308 297 293 310 317 303 302 298 291 278 110 173 208 225 224 255
160 151 151 149 142 147 147 143 145 130 94 88 72 52 47 298 272 263 257 259 113 330 323 333 324 326 323 323 320 321 330 346 30 8 343 322 301 293 286 286 277 279 278 229 229 292 322 316 304 293 298 306 322 311 313 304 303 301 304 304 301 299 296 292 283 262 259 210 319 313 299 304 317 308 306 308 309 308 315 333 73 81 73 98 360
146 144 142 143 144 141 141 143 148 112 77 44 49 43 338 266 271 260 48 30 22 19 14 4 351 348 338 345 342 340 343 350 32 15 355 329 312 308 310 300 304 299 261 162 134 137 350 326 318 319 318 358 357 343 351 333 301 300 296 284 277 269 279 299 297 308 304 30 353 340 309 309 322 308 309 313 311 298 300 290 104 96 89 91 96
147 145 147 148 146 149 152 162 143 107 84 47 39 32 3 332 295 85 13 55 43 44 29 9 350 347 358 355 339 334 337 22 33 10 351 334 314 322 331 335 329 312 313 165 167 153 147 191 279 292 287 300 313 311 260 266 295 322 311 303 313 334 314 304 309 299 303 350 47 8 331 306 312 314 309 307 310 303 291 285 127 128 134 147 164
149 145 142 144 149 155 162 137 111 104 94 56 40 25 353 330 311 78 114 93 77 29 45 18 359 343 14 87 352 349 352 16 22 10 356 338 328 332 338 338 336 336 328 13 9 190 177 191 206 231 231 215 221 215 205 190 226 269 321 332 333 317 307 304 306 315 314 327 64 360 318 309 319 317 316 317 302 273 277 334 352 126 169 177 178
140 142 148 143 149 149 126 111 107 107 102 79 49 16 351 330 309 119 64 82 45 30 3 3 353 337 339 143 121 50 33 23 18 13 6 350 327 325 325 325 320 334 3 1 344 327 321 290 190 211 195 212 206 206 178 171 179 258 307 332 326 322 317 319 318 317 304 308 57 356 320 321 323 315 339 331 319 308 2 10 326 330 327 324 313